owner,sensor,date,latitude,longitude,vertical_datum,wind_speed,wind_to_direction,wind_speed_of_gust,qcFlag 
LUMCON,ioos:station:LUMCON:105:1,2005-10-01T01:00:00Z,29.1874,-90.6654,1.0,4.1,130.0,5.1,'11111222,11111222,11111222' 
LUMCON,ioos:station:LUMCON:105:1,2005-10-01T02:00:00Z,29.1874,-90.6654,1.0,4.6,130.0,6.2,'11111222,11111222,11111222' 
LUMCON,ioos:station:LUMCON:105:1,2005-10-01T03:00:00Z,29.1874,-90.6654,1.0,3.6,120.0,4.6,'11111222,11111222,11111222' 
LUMCON,ioos:station:LUMCON:105:1,2005-10-01T04:00:00Z,29.1874,-90.6654,1.0,4.1,130.0,5.1,'11111222,11111222,11111222' 
LUMCON,ioos:station:LUMCON:105:1,2005-10-01T05:00:00Z,29.1874,-90.6654,1.0,3.6,140.0,4.6,'11111222,11111222,11111222' 
LUMCON,ioos:station:LUMCON:105:1,2005-10-01T06:00:00Z,29.1874,-90.6654,1.0,6.2,140.0,7.2,'11111222,11111222,11111222' 
LUMCON,ioos:station:LUMCON:105:1,2005-10-01T09:00:00Z,29.1874,-90.6654,1.0,5.1,120.0,6.2,'11111222,11111222,11111222' 
LUMCON,ioos:station:LUMCON:105:1,2005-10-01T10:00:00Z,29.1874,-90.6654,1.0,5.1,120.0,6.2,'11111222,11111222,11111222' 
LUMCON,ioos:station:LUMCON:105:1,2005-10-01T11:00:00Z,29.1874,-90.6654,1.0,5.1,110.0,6.2,'11111222,11111222,11111222' 
LUMCON,ioos:station:LUMCON:105:1,2005-10-01T12:00:00Z,29.1874,-90.6654,1.0,5.1,110.0,6.7,'11111222,11111222,11111222' 
LUMCON,ioos:station:LUMCON:105:1,2005-10-01T13:00:00Z,29.1874,-90.6654,1.0,5.1,100.0,6.2,'11111222,11111222,11111222' 
LUMCON,ioos:station:LUMCON:105:1,2005-10-01T15:00:00Z,29.1874,-90.6654,1.0,7.2,100.0,8.2,'11111222,11111222,11111222' 
LUMCON,ioos:station:LUMCON:105:1,2005-10-01T16:00:00Z,29.1874,-90.6654,1.0,7.2,100.0,8.8,'11111222,11111222,11111222' 
LUMCON,ioos:station:LUMCON:105:1,2005-10-01T17:00:00Z,29.1874,-90.6654,1.0,7.7,100.0,10.3,'11111222,11111222,11111222' 
LUMCON,ioos:station:LUMCON:105:1,2005-10-01T18:00:00Z,29.1874,-90.6654,1.0,7.7,110.0,9.3,'11111222,11111222,11111222' 
LUMCON,ioos:station:LUMCON:105:1,2005-10-01T19:00:00Z,29.1874,-90.6654,1.0,7.7,110.0,9.3,'11111222,11111222,11111222' 
LUMCON,ioos:station:LUMCON:105:1,2005-10-01T20:00:00Z,29.1874,-90.6654,1.0,7.7,110.0,9.3,'11111222,11111222,11111222' 
LUMCON,ioos:station:LUMCON:105:1,2005-10-01T21:00:00Z,29.1874,-90.6654,1.0,7.7,100.0,9.3,'11111222,11111222,11111222' 
LUMCON,ioos:station:LUMCON:105:1,2005-10-01T22:00:00Z,29.1874,-90.6654,1.0,7.7,100.0,9.3,'11111222,11111222,11111222' 
LUMCON,ioos:station:LUMCON:105:1,2005-10-01T23:00:00Z,29.1874,-90.6654,1.0,9.8,120.0,13.4,'11111222,11111222,11111222' 
LUMCON,ioos:station:LUMCON:105:1,2005-10-02T00:00:00Z,29.1874,-90.6654,1.0,9.3,120.0,11.3,'11111222,11111222,11111222' 
LUMCON,ioos:station:LUMCON:105:1,2005-10-02T01:00:00Z,29.1874,-90.6654,1.0,8.8,120.0,9.8,'11111222,11111222,11111222' 
LUMCON,ioos:station:LUMCON:105:1,2005-10-02T03:00:00Z,29.1874,-90.6654,1.0,8.8,110.0,9.8,'11111222,11111222,11111222' 
LUMCON,ioos:station:LUMCON:105:1,2005-10-02T06:00:00Z,29.1874,-90.6654,1.0,9.3,120.0,11.3,'11111222,11111222,11111222' 
LUMCON,ioos:station:LUMCON:105:1,2005-10-02T12:00:00Z,29.1874,-90.6654,1.0,8.2,110.0,9.8,'11111222,11111222,11111222' 
LUMCON,ioos:station:LUMCON:105:1,2005-10-02T17:00:00Z,29.1874,-90.6654,1.0,8.8,110.0,10.3,'11111222,11111222,11111222' 
LUMCON,ioos:station:LUMCON:105:1,2005-10-02T18:00:00Z,29.1874,-90.6654,1.0,8.2,120.0,9.3,'11111222,11111222,11111222' 
LUMCON,ioos:station:LUMCON:105:1,2005-10-02T23:00:00Z,29.1874,-90.6654,1.0,10.3,110.0,12.9,'11111222,11111222,11111222' 
LUMCON,ioos:station:LUMCON:105:1,2005-10-03T04:00:00Z,29.1874,-90.6654,1.0,9.8,90.0,11.8,'11111222,11111222,11111222' 
LUMCON,ioos:station:LUMCON:105:1,2005-10-03T06:00:00Z,29.1874,-90.6654,1.0,9.8,100.0,11.8,'11111222,11111222,11111222' 
LUMCON,ioos:station:LUMCON:105:1,2005-10-03T07:00:00Z,29.1874,-90.6654,1.0,8.8,100.0,10.8,'11111222,11111222,11111222' 
LUMCON,ioos:station:LUMCON:105:1,2005-10-03T08:00:00Z,29.1874,-90.6654,1.0,7.7,100.0,9.8,'11111222,11111222,11111222' 
LUMCON,ioos:station:LUMCON:105:1,2005-10-03T09:00:00Z,29.1874,-90.6654,1.0,7.2,90.0,8.2,'11111222,11111222,11111222' 
LUMCON,ioos:station:LUMCON:105:1,2005-10-03T22:00:00Z,29.1874,-90.6654,1.0,10.8,90.0,12.9,'11111222,11111222,11111222' 
LUMCON,ioos:station:LUMCON:105:1,2005-10-03T23:00:00Z,29.1874,-90.6654,1.0,11.3,90.0,13.4,'11111222,11111222,11111222' 
LUMCON,ioos:station:LUMCON:105:1,2005-10-04T00:00:00Z,29.1874,-90.6654,1.0,10.3,90.0,12.4,'11111222,11111222,11111222' 
LUMCON,ioos:station:LUMCON:105:1,2005-10-06T18:00:00Z,29.1874,-90.6654,1.0,7.7,10.0,9.3,'11111222,11111222,11111222' 
LUMCON,ioos:station:LUMCON:105:1,2005-10-06T19:00:00Z,29.1874,-90.6654,1.0,7.2,50.0,8.8,'11111222,11111222,11111222' 
LUMCON,ioos:station:LUMCON:105:1,2005-10-06T20:00:00Z,29.1874,-90.6654,1.0,5.7,20.0,8.8,'11111222,11111222,11111222' 
LUMCON,ioos:station:LUMCON:105:1,2005-10-06T21:00:00Z,29.1874,-90.6654,1.0,8.2,30.0,10.3,'11111222,11111222,11111222' 
LUMCON,ioos:station:LUMCON:105:1,2005-10-07T00:00:00Z,29.1874,-90.6654,1.0,5.1,10.0,6.2,'11111222,11111222,11111222' 
LUMCON,ioos:station:LUMCON:105:1,2005-10-07T01:00:00Z,29.1874,-90.6654,1.0,5.1,350.0,5.7,'11111222,11111222,11111222' 
LUMCON,ioos:station:LUMCON:105:1,2005-10-07T02:00:00Z,29.1874,-90.6654,1.0,6.2,360.0,7.7,'11111222,11144222,11111222' 
LUMCON,ioos:station:LUMCON:105:1,2005-10-07T03:00:00Z,29.1874,-90.6654,1.0,7.2,0.0,8.8,'11111222,11111222,11111222' 
LUMCON,ioos:station:LUMCON:105:1,2005-10-07T04:00:00Z,29.1874,-90.6654,1.0,7.7,0.0,9.8,'11111222,11111222,11111222' 
LUMCON,ioos:station:LUMCON:105:1,2005-10-07T05:00:00Z,29.1874,-90.6654,1.0,8.2,10.0,10.3,'11111222,11111222,11111222' 
LUMCON,ioos:station:LUMCON:105:1,2005-10-07T06:00:00Z,29.1874,-90.6654,1.0,8.2,0.0,9.8,'11111222,11111222,11111222' 
LUMCON,ioos:station:LUMCON:105:1,2005-10-07T21:00:00Z,29.1874,-90.6654,1.0,7.7,0.0,9.3,'11111222,11111222,11111222' 
LUMCON,ioos:station:LUMCON:105:1,2005-10-07T22:00:00Z,29.1874,-90.6654,1.0,8.2,350.0,10.3,'11111222,11111222,11111222' 
LUMCON,ioos:station:LUMCON:105:1,2005-10-07T23:00:00Z,29.1874,-90.6654,1.0,9.3,350.0,10.8,'11111222,11111222,11111222' 
LUMCON,ioos:station:LUMCON:105:1,2005-10-08T00:00:00Z,29.1874,-90.6654,1.0,8.2,0.0,9.8,'11111222,11111222,11111222' 
LUMCON,ioos:station:LUMCON:105:1,2005-10-08T01:00:00Z,29.1874,-90.6654,1.0,9.8,10.0,10.8,'11111222,11111222,11111222' 
LUMCON,ioos:station:LUMCON:105:1,2005-10-08T02:00:00Z,29.1874,-90.6654,1.0,9.3,0.0,11.3,'11111222,11111222,11111222' 
LUMCON,ioos:station:LUMCON:105:1,2005-10-08T06:00:00Z,29.1874,-90.6654,1.0,10.3,20.0,12.4,'11111222,11111222,11111222' 
LUMCON,ioos:station:LUMCON:105:1,2005-10-08T07:00:00Z,29.1874,-90.6654,1.0,9.8,20.0,11.3,'11111222,11111222,11111222' 
LUMCON,ioos:station:LUMCON:105:1,2005-10-08T09:00:00Z,29.1874,-90.6654,1.0,8.2,20.0,9.8,'11111222,11111222,11111222' 
LUMCON,ioos:station:LUMCON:105:1,2005-10-08T14:00:00Z,29.1874,-90.6654,1.0,5.7,10.0,6.7,'11111222,11111222,11111222' 
LUMCON,ioos:station:LUMCON:105:1,2005-10-08T15:00:00Z,29.1874,-90.6654,1.0,4.1,30.0,5.7,'11111222,11111222,11111222' 
LUMCON,ioos:station:LUMCON:105:1,2005-10-08T16:00:00Z,29.1874,-90.6654,1.0,3.6,0.0,4.6,'11111222,11111222,11111222' 
LUMCON,ioos:station:LUMCON:105:1,2005-10-08T19:00:00Z,29.1874,-90.6654,1.0,5.7,340.0,6.7,'11111222,11111222,11111222' 
LUMCON,ioos:station:LUMCON:105:1,2005-10-08T20:00:00Z,29.1874,-90.6654,1.0,5.1,350.0,6.7,'11111222,11111222,11111222' 
LUMCON,ioos:station:LUMCON:105:1,2005-10-08T21:00:00Z,29.1874,-90.6654,1.0,3.6,350.0,5.7,'11111222,11111222,11111222' 
LUMCON,ioos:station:LUMCON:105:1,2005-10-09T01:00:00Z,29.1874,-90.6654,1.0,4.1,360.0,4.6,'11111222,11144222,11111222' 
LUMCON,ioos:station:LUMCON:105:1,2005-10-09T02:00:00Z,29.1874,-90.6654,1.0,4.6,350.0,5.7,'11111222,11111222,11111222' 
LUMCON,ioos:station:LUMCON:105:1,2005-10-09T03:00:00Z,29.1874,-90.6654,1.0,5.7,350.0,6.7,'11111222,11111222,11111222' 
LUMCON,ioos:station:LUMCON:105:1,2005-10-10T01:00:00Z,29.1874,-90.6654,1.0,3.1,290.0,3.6,'11111222,11111222,11111222' 
LUMCON,ioos:station:LUMCON:105:1,2005-10-10T02:00:00Z,29.1874,-90.6654,1.0,2.6,290.0,3.6,'11111222,11111222,11111222' 
LUMCON,ioos:station:LUMCON:105:1,2005-10-10T03:00:00Z,29.1874,-90.6654,1.0,3.1,340.0,4.1,'11111222,11111222,11111222' 
LUMCON,ioos:station:LUMCON:105:1,2005-10-10T05:00:00Z,29.1874,-90.6654,1.0,1.5,360.0,2.1,'11111222,11144222,11111222' 
LUMCON,ioos:station:LUMCON:105:1,2005-10-10T17:00:00Z,29.1874,-90.6654,1.0,2.6,60.0,3.6,'11111222,11111222,11111222' 
LUMCON,ioos:station:LUMCON:105:1,2005-10-10T22:00:00Z,29.1874,-90.6654,1.0,3.6,140.0,4.6,'11111222,11111222,11111222' 
LUMCON,ioos:station:LUMCON:105:1,2005-10-10T23:00:00Z,29.1874,-90.6654,1.0,4.1,140.0,5.7,'11111222,11111222,11111222' 
LUMCON,ioos:station:LUMCON:105:1,2005-10-11T02:00:00Z,29.1874,-90.6654,1.0,4.1,120.0,5.1,'11111222,11111222,11111222' 
LUMCON,ioos:station:LUMCON:105:1,2005-10-11T03:00:00Z,29.1874,-90.6654,1.0,4.1,120.0,5.1,'11111222,11111222,11111222' 
LUMCON,ioos:station:LUMCON:105:1,2005-10-11T20:00:00Z,29.1874,-90.6654,1.0,3.1,120.0,4.1,'11111222,11111222,11111222' 
LUMCON,ioos:station:LUMCON:105:1,2005-10-11T21:00:00Z,29.1874,-90.6654,1.0,2.6,140.0,3.6,'11111222,11111222,11111222' 
LUMCON,ioos:station:LUMCON:105:1,2005-10-11T22:00:00Z,29.1874,-90.6654,1.0,3.6,140.0,4.1,'11111222,11111222,11111222' 
LUMCON,ioos:station:LUMCON:105:1,2005-10-11T23:00:00Z,29.1874,-90.6654,1.0,2.1,160.0,2.6,'11111222,11111222,11111222' 
LUMCON,ioos:station:LUMCON:105:1,2005-10-12T00:00:00Z,29.1874,-90.6654,1.0,1.0,160.0,1.5,'11111222,11111222,11111222' 
LUMCON,ioos:station:LUMCON:105:1,2005-10-12T01:00:00Z,29.1874,-90.6654,1.0,2.1,280.0,2.6,'11111222,11111222,11111222' 
LUMCON,ioos:station:LUMCON:105:1,2005-10-12T02:00:00Z,29.1874,-90.6654,1.0,2.1,290.0,3.1,'11111222,11111222,11111222' 
LUMCON,ioos:station:LUMCON:105:1,2005-10-12T03:00:00Z,29.1874,-90.6654,1.0,2.1,300.0,3.1,'11111222,11111222,11111222' 
LUMCON,ioos:station:LUMCON:105:1,2005-10-13T01:00:00Z,29.1874,-90.6654,1.0,5.1,60.0,6.2,'11111222,11111222,11111222' 
LUMCON,ioos:station:LUMCON:105:1,2005-10-13T02:00:00Z,29.1874,-90.6654,1.0,4.6,60.0,5.7,'11111222,11111222,11111222' 
LUMCON,ioos:station:LUMCON:105:1,2005-10-13T03:00:00Z,29.1874,-90.6654,1.0,3.6,40.0,4.1,'11111222,11111222,11111222' 
LUMCON,ioos:station:LUMCON:105:1,2005-10-13T04:00:00Z,29.1874,-90.6654,1.0,2.6,30.0,3.6,'11111222,11111222,11111222' 
LUMCON,ioos:station:LUMCON:105:1,2005-10-13T05:00:00Z,29.1874,-90.6654,1.0,3.1,20.0,3.6,'11111222,11111222,11111222' 
LUMCON,ioos:station:LUMCON:105:1,2005-10-13T06:00:00Z,29.1874,-90.6654,1.0,3.6,10.0,4.6,'11111222,11111222,11111222' 
LUMCON,ioos:station:LUMCON:105:1,2005-10-13T19:00:00Z,29.1874,-90.6654,1.0,5.1,80.0,6.2,'11111222,11111222,11111222' 
LUMCON,ioos:station:LUMCON:105:1,2005-10-13T20:00:00Z,29.1874,-90.6654,1.0,5.1,80.0,6.2,'11111222,11111222,11111222' 
LUMCON,ioos:station:LUMCON:105:1,2005-10-13T21:00:00Z,29.1874,-90.6654,1.0,4.6,90.0,5.7,'11111222,11111222,11111222' 
LUMCON,ioos:station:LUMCON:105:1,2005-10-13T22:00:00Z,29.1874,-90.6654,1.0,5.1,80.0,6.7,'11111222,11111222,11111222' 
LUMCON,ioos:station:LUMCON:105:1,2005-10-13T23:00:00Z,29.1874,-90.6654,1.0,5.1,80.0,6.2,'11111222,11111222,11111222' 
LUMCON,ioos:station:LUMCON:105:1,2005-10-14T01:00:00Z,29.1874,-90.6654,1.0,4.6,100.0,5.1,'11111222,11111222,11111222' 
LUMCON,ioos:station:LUMCON:105:1,2005-10-14T03:00:00Z,29.1874,-90.6654,1.0,3.1,100.0,4.1,'11111222,11111222,11111222' 
LUMCON,ioos:station:LUMCON:105:1,2005-10-14T04:00:00Z,29.1874,-90.6654,1.0,1.5,90.0,2.1,'11111222,11111222,11111222' 
LUMCON,ioos:station:LUMCON:105:1,2005-10-14T05:00:00Z,29.1874,-90.6654,1.0,1.0,90.0,1.5,'11111222,11111222,11111222' 
LUMCON,ioos:station:LUMCON:105:1,2005-10-14T06:00:00Z,29.1874,-90.6654,1.0,0.0,70.0,0.5,'11111222,11111222,11111222' 
LUMCON,ioos:station:LUMCON:105:1,2005-10-14T07:00:00Z,29.1874,-90.6654,1.0,1.5,330.0,2.1,'11111222,11111222,11111222' 
LUMCON,ioos:station:LUMCON:105:1,2005-10-14T21:00:00Z,29.1874,-90.6654,1.0,5.7,10.0,7.7,'11111222,11111222,11111222' 
LUMCON,ioos:station:LUMCON:105:1,2005-10-14T22:00:00Z,29.1874,-90.6654,1.0,5.1,40.0,6.7,'11111222,11111222,11111222' 
LUMCON,ioos:station:LUMCON:105:1,2005-10-14T23:00:00Z,29.1874,-90.6654,1.0,6.2,30.0,7.2,'11111222,11111222,11111222' 
LUMCON,ioos:station:LUMCON:105:1,2005-10-15T01:00:00Z,29.1874,-90.6654,1.0,3.6,30.0,4.1,'11111222,11111222,11111222' 
LUMCON,ioos:station:LUMCON:105:1,2005-10-15T02:00:00Z,29.1874,-90.6654,1.0,4.1,20.0,5.1,'11111222,11111222,11111222' 
LUMCON,ioos:station:LUMCON:105:1,2005-10-15T03:00:00Z,29.1874,-90.6654,1.0,4.6,10.0,5.7,'11111222,11111222,11111222' 
LUMCON,ioos:station:LUMCON:105:1,2005-10-15T04:00:00Z,29.1874,-90.6654,1.0,6.2,10.0,7.7,'11111222,11111222,11111222' 
LUMCON,ioos:station:LUMCON:105:1,2005-10-15T05:00:00Z,29.1874,-90.6654,1.0,6.2,30.0,7.7,'11111222,11111222,11111222' 
LUMCON,ioos:station:LUMCON:105:1,2005-10-15T09:00:00Z,29.1874,-90.6654,1.0,5.1,30.0,6.2,'11111222,11111222,11111222' 
LUMCON,ioos:station:LUMCON:105:1,2005-10-15T11:00:00Z,29.1874,-90.6654,1.0,5.7,30.0,7.2,'11111222,11111222,11111222' 
LUMCON,ioos:station:LUMCON:105:1,2005-10-15T12:00:00Z,29.1874,-90.6654,1.0,5.1,40.0,6.2,'11111222,11111222,11111222' 
LUMCON,ioos:station:LUMCON:105:1,2005-10-15T13:00:00Z,29.1874,-90.6654,1.0,5.1,30.0,5.7,'11111222,11111222,11111222' 
LUMCON,ioos:station:LUMCON:105:1,2005-10-15T14:00:00Z,29.1874,-90.6654,1.0,6.2,40.0,7.2,'11111222,11111222,11111222' 
LUMCON,ioos:station:LUMCON:105:1,2005-10-15T15:00:00Z,29.1874,-90.6654,1.0,7.2,50.0,8.8,'11111222,11111222,11111222' 
LUMCON,ioos:station:LUMCON:105:1,2005-10-15T16:00:00Z,29.1874,-90.6654,1.0,6.2,50.0,7.7,'11111222,11111222,11111222' 
LUMCON,ioos:station:LUMCON:105:1,2005-10-15T17:00:00Z,29.1874,-90.6654,1.0,5.7,50.0,6.7,'11111222,11111222,11111222' 
LUMCON,ioos:station:LUMCON:105:1,2005-10-15T18:00:00Z,29.1874,-90.6654,1.0,4.6,50.0,5.7,'11111222,11111222,11111222' 
LUMCON,ioos:station:LUMCON:105:1,2005-10-15T20:00:00Z,29.1874,-90.6654,1.0,3.6,70.0,4.6,'11111222,11111222,11111222' 
LUMCON,ioos:station:LUMCON:105:1,2005-10-15T21:00:00Z,29.1874,-90.6654,1.0,3.6,80.0,5.1,'11111222,11111222,11111222' 
LUMCON,ioos:station:LUMCON:105:1,2005-10-15T22:00:00Z,29.1874,-90.6654,1.0,3.1,70.0,4.1,'11111222,11111222,11111222' 
LUMCON,ioos:station:LUMCON:105:1,2005-10-15T23:00:00Z,29.1874,-90.6654,1.0,4.6,70.0,5.1,'11111222,11111222,11111222' 
LUMCON,ioos:station:LUMCON:105:1,2005-10-16T01:00:00Z,29.1874,-90.6654,1.0,3.1,30.0,3.6,'11111222,11111222,11111222' 
LUMCON,ioos:station:LUMCON:105:1,2005-10-16T02:00:00Z,29.1874,-90.6654,1.0,2.6,20.0,3.1,'11111222,11111222,11111222' 
LUMCON,ioos:station:LUMCON:105:1,2005-10-16T04:00:00Z,29.1874,-90.6654,1.0,2.6,360.0,3.1,'11111222,11144222,11111222' 
LUMCON,ioos:station:LUMCON:105:1,2005-10-16T05:00:00Z,29.1874,-90.6654,1.0,3.1,350.0,3.1,'11111222,11111222,11111222' 
LUMCON,ioos:station:LUMCON:105:1,2005-10-16T06:00:00Z,29.1874,-90.6654,1.0,1.5,10.0,2.6,'11111222,11111222,11111222' 
LUMCON,ioos:station:LUMCON:105:1,2005-10-16T07:00:00Z,29.1874,-90.6654,1.0,3.1,0.0,4.1,'11111222,11111222,11111222' 
LUMCON,ioos:station:LUMCON:105:1,2005-10-16T08:00:00Z,29.1874,-90.6654,1.0,3.1,30.0,3.6,'11111222,11111222,11111222' 
LUMCON,ioos:station:LUMCON:105:1,2005-10-16T09:00:00Z,29.1874,-90.6654,1.0,3.6,50.0,4.1,'11111222,11111222,11111222' 
LUMCON,ioos:station:LUMCON:105:1,2005-10-16T10:00:00Z,29.1874,-90.6654,1.0,3.1,30.0,4.1,'11111222,11111222,11111222' 
LUMCON,ioos:station:LUMCON:105:1,2005-10-16T11:00:00Z,29.1874,-90.6654,1.0,3.1,20.0,3.6,'11111222,11111222,11111222' 
LUMCON,ioos:station:LUMCON:105:1,2005-10-16T18:00:00Z,29.1874,-90.6654,1.0,3.6,110.0,4.6,'11111222,11111222,11111222' 
LUMCON,ioos:station:LUMCON:105:1,2005-10-16T19:00:00Z,29.1874,-90.6654,1.0,3.1,110.0,3.6,'11111222,11111222,11111222' 
LUMCON,ioos:station:LUMCON:105:1,2005-10-16T21:00:00Z,29.1874,-90.6654,1.0,2.1,140.0,2.6,'11111222,11111222,11111222' 
LUMCON,ioos:station:LUMCON:105:1,2005-10-16T22:00:00Z,29.1874,-90.6654,1.0,1.5,150.0,2.1,'11111222,11111222,11111222' 
LUMCON,ioos:station:LUMCON:105:1,2005-10-16T23:00:00Z,29.1874,-90.6654,1.0,1.0,190.0,1.5,'11111222,11111222,11111222' 
LUMCON,ioos:station:LUMCON:105:1,2005-10-17T00:00:00Z,29.1874,-90.6654,1.0,1.5,180.0,1.5,'11111222,11111222,11111222' 
LUMCON,ioos:station:LUMCON:105:1,2005-10-17T01:00:00Z,29.1874,-90.6654,1.0,1.0,300.0,2.1,'11111222,11111222,11111222' 
LUMCON,ioos:station:LUMCON:105:1,2005-10-17T02:00:00Z,29.1874,-90.6654,1.0,2.6,300.0,4.1,'11111222,11111222,11111222' 
LUMCON,ioos:station:LUMCON:105:1,2005-10-17T03:00:00Z,29.1874,-90.6654,1.0,3.1,310.0,3.6,'11111222,11111222,11111222' 
LUMCON,ioos:station:LUMCON:105:1,2005-10-17T04:00:00Z,29.1874,-90.6654,1.0,3.1,300.0,4.6,'11111222,11111222,11111222' 
LUMCON,ioos:station:LUMCON:105:1,2005-10-17T05:00:00Z,29.1874,-90.6654,1.0,2.6,310.0,4.1,'11111222,11111222,11111222' 
LUMCON,ioos:station:LUMCON:105:1,2005-10-17T06:00:00Z,29.1874,-90.6654,1.0,3.6,350.0,4.1,'11111222,11111222,11111222' 
LUMCON,ioos:station:LUMCON:105:1,2005-10-17T07:00:00Z,29.1874,-90.6654,1.0,5.1,60.0,6.2,'11111222,11111222,11111222' 
LUMCON,ioos:station:LUMCON:105:1,2005-10-17T08:00:00Z,29.1874,-90.6654,1.0,7.2,70.0,8.8,'11111222,11111222,11111222' 
LUMCON,ioos:station:LUMCON:105:1,2005-10-17T09:00:00Z,29.1874,-90.6654,1.0,7.7,70.0,9.3,'11111222,11111222,11111222' 
LUMCON,ioos:station:LUMCON:105:1,2005-10-17T10:00:00Z,29.1874,-90.6654,1.0,7.2,60.0,8.2,'11111222,11111222,11111222' 
LUMCON,ioos:station:LUMCON:105:1,2005-10-17T11:00:00Z,29.1874,-90.6654,1.0,6.2,60.0,7.2,'11111222,11111222,11111222' 
LUMCON,ioos:station:LUMCON:105:1,2005-10-17T12:00:00Z,29.1874,-90.6654,1.0,5.1,60.0,6.7,'11111222,11111222,11111222' 
LUMCON,ioos:station:LUMCON:105:1,2005-10-17T14:00:00Z,29.1874,-90.6654,1.0,5.1,50.0,5.7,'11111222,11111222,11111222' 
LUMCON,ioos:station:LUMCON:105:1,2005-10-17T15:00:00Z,29.1874,-90.6654,1.0,4.6,50.0,5.7,'11111222,11111222,11111222' 
LUMCON,ioos:station:LUMCON:105:1,2005-10-17T16:00:00Z,29.1874,-90.6654,1.0,4.1,60.0,6.2,'11111222,11111222,11111222' 
LUMCON,ioos:station:LUMCON:105:1,2005-10-17T17:00:00Z,29.1874,-90.6654,1.0,4.1,50.0,5.1,'11111222,11111222,11111222' 
LUMCON,ioos:station:LUMCON:105:1,2005-10-17T18:00:00Z,29.1874,-90.6654,1.0,4.1,50.0,5.7,'11111222,11111222,11111222' 
LUMCON,ioos:station:LUMCON:105:1,2005-10-17T19:00:00Z,29.1874,-90.6654,1.0,4.1,60.0,5.1,'11111222,11111222,11111222' 
LUMCON,ioos:station:LUMCON:105:1,2005-10-17T20:00:00Z,29.1874,-90.6654,1.0,4.1,60.0,5.1,'11111222,11111222,11111222' 
LUMCON,ioos:station:LUMCON:105:1,2005-10-17T21:00:00Z,29.1874,-90.6654,1.0,3.6,70.0,4.6,'11111222,11111222,11111222' 
LUMCON,ioos:station:LUMCON:105:1,2005-10-17T22:00:00Z,29.1874,-90.6654,1.0,3.1,70.0,4.1,'11111222,11111222,11111222' 
LUMCON,ioos:station:LUMCON:105:1,2005-10-17T23:00:00Z,29.1874,-90.6654,1.0,1.5,50.0,1.5,'11111222,11111222,11111222' 
LUMCON,ioos:station:LUMCON:105:1,2005-10-18T00:00:00Z,29.1874,-90.6654,1.0,3.1,30.0,4.1,'11111222,11111222,11111222' 
LUMCON,ioos:station:LUMCON:105:1,2005-10-18T01:00:00Z,29.1874,-90.6654,1.0,2.6,30.0,2.6,'11111222,11111222,11111222' 
LUMCON,ioos:station:LUMCON:105:1,2005-10-18T02:00:00Z,29.1874,-90.6654,1.0,1.0,60.0,1.0,'11111222,11111222,11111222' 
LUMCON,ioos:station:LUMCON:105:1,2005-10-18T03:00:00Z,29.1874,-90.6654,1.0,1.5,360.0,1.5,'11111222,11144222,11111222' 
LUMCON,ioos:station:LUMCON:105:1,2005-10-18T04:00:00Z,29.1874,-90.6654,1.0,1.0,360.0,1.5,'11111222,11144222,11111222' 
LUMCON,ioos:station:LUMCON:105:1,2005-10-18T05:00:00Z,29.1874,-90.6654,1.0,2.1,340.0,2.6,'11111222,11111222,11111222' 
LUMCON,ioos:station:LUMCON:105:1,2005-10-18T06:00:00Z,29.1874,-90.6654,1.0,3.6,340.0,4.1,'11111222,11111222,11111222' 
LUMCON,ioos:station:LUMCON:105:1,2005-10-18T07:00:00Z,29.1874,-90.6654,1.0,4.1,350.0,4.6,'11111222,11111222,11111222' 
LUMCON,ioos:station:LUMCON:105:1,2005-10-18T08:00:00Z,29.1874,-90.6654,1.0,4.1,0.0,4.6,'11111222,11111222,11111222' 
LUMCON,ioos:station:LUMCON:105:1,2005-10-18T09:00:00Z,29.1874,-90.6654,1.0,4.1,0.0,4.6,'11111222,11111222,11111222' 
LUMCON,ioos:station:LUMCON:105:1,2005-10-18T11:00:00Z,29.1874,-90.6654,1.0,3.1,20.0,3.6,'11111222,11111222,11111222' 
LUMCON,ioos:station:LUMCON:105:1,2005-10-18T12:00:00Z,29.1874,-90.6654,1.0,2.6,50.0,3.6,'11111222,11111222,11111222' 
LUMCON,ioos:station:LUMCON:105:1,2005-10-18T13:00:00Z,29.1874,-90.6654,1.0,3.1,60.0,3.6,'11111222,11111222,11111222' 
LUMCON,ioos:station:LUMCON:105:1,2005-10-18T14:00:00Z,29.1874,-90.6654,1.0,3.1,70.0,3.6,'11111222,11111222,11111222' 
LUMCON,ioos:station:LUMCON:105:1,2005-10-18T15:00:00Z,29.1874,-90.6654,1.0,3.1,90.0,3.6,'11111222,11111222,11111222' 
LUMCON,ioos:station:LUMCON:105:1,2005-10-18T17:00:00Z,29.1874,-90.6654,1.0,2.6,110.0,3.1,'11111222,11111222,11111222' 
LUMCON,ioos:station:LUMCON:105:1,2005-10-18T18:00:00Z,29.1874,-90.6654,1.0,2.6,120.0,3.1,'11111222,11111222,11111222' 
LUMCON,ioos:station:LUMCON:105:1,2005-10-18T19:00:00Z,29.1874,-90.6654,1.0,2.1,140.0,2.6,'11111222,11111222,11111222' 
LUMCON,ioos:station:LUMCON:105:1,2005-10-18T20:00:00Z,29.1874,-90.6654,1.0,2.6,150.0,3.1,'11111222,11111222,11111222' 
LUMCON,ioos:station:LUMCON:105:1,2005-10-18T21:00:00Z,29.1874,-90.6654,1.0,2.6,150.0,3.1,'11111222,11111222,11111222' 
LUMCON,ioos:station:LUMCON:105:1,2005-10-19T00:00:00Z,29.1874,-90.6654,1.0,3.1,170.0,3.6,'11111222,11111222,11111222' 
LUMCON,ioos:station:LUMCON:105:1,2005-10-19T01:00:00Z,29.1874,-90.6654,1.0,2.6,150.0,3.1,'11111222,11111222,11111222' 
LUMCON,ioos:station:LUMCON:105:1,2005-10-19T02:00:00Z,29.1874,-90.6654,1.0,1.5,140.0,1.5,'11111222,11111222,11111222' 
LUMCON,ioos:station:LUMCON:105:1,2005-10-19T03:00:00Z,29.1874,-90.6654,1.0,1.5,120.0,2.1,'11111222,11111222,11111222' 
LUMCON,ioos:station:LUMCON:105:1,2005-10-19T04:00:00Z,29.1874,-90.6654,1.0,0.5,110.0,0.5,'11111222,11111222,11111222' 
LUMCON,ioos:station:LUMCON:105:1,2005-10-19T05:00:00Z,29.1874,-90.6654,1.0,0.5,360.0,0.5,'11111222,11144222,11111222' 
LUMCON,ioos:station:LUMCON:105:1,2005-10-19T06:00:00Z,29.1874,-90.6654,1.0,1.0,350.0,1.5,'11111222,11111222,11111222' 
LUMCON,ioos:station:LUMCON:105:1,2005-10-19T07:00:00Z,29.1874,-90.6654,1.0,2.1,10.0,2.6,'11111222,11111222,11111222' 
LUMCON,ioos:station:LUMCON:105:1,2005-10-19T08:00:00Z,29.1874,-90.6654,1.0,2.1,10.0,2.6,'11111222,11111222,11111222' 
LUMCON,ioos:station:LUMCON:105:1,2005-10-19T09:00:00Z,29.1874,-90.6654,1.0,2.6,0.0,3.1,'11111222,11111222,11111222' 
LUMCON,ioos:station:LUMCON:105:1,2005-10-19T10:00:00Z,29.1874,-90.6654,1.0,2.1,30.0,2.6,'11111222,11111222,11111222' 
LUMCON,ioos:station:LUMCON:105:1,2005-10-19T11:00:00Z,29.1874,-90.6654,1.0,2.6,30.0,3.1,'11111222,11111222,11111222' 
LUMCON,ioos:station:LUMCON:105:1,2005-10-19T12:00:00Z,29.1874,-90.6654,1.0,3.1,40.0,4.1,'11111222,11111222,11111222' 
LUMCON,ioos:station:LUMCON:105:1,2005-10-19T13:00:00Z,29.1874,-90.6654,1.0,4.1,60.0,4.6,'11111222,11111222,11111222' 
LUMCON,ioos:station:LUMCON:105:1,2005-10-19T14:00:00Z,29.1874,-90.6654,1.0,4.1,70.0,5.1,'11111222,11111222,11111222' 
LUMCON,ioos:station:LUMCON:105:1,2005-10-19T16:00:00Z,29.1874,-90.6654,1.0,5.1,70.0,5.7,'11111222,11111222,11111222' 
LUMCON,ioos:station:LUMCON:105:1,2005-10-19T17:00:00Z,29.1874,-90.6654,1.0,4.6,100.0,5.7,'11111222,11111222,11111222' 
LUMCON,ioos:station:LUMCON:105:1,2005-10-19T18:00:00Z,29.1874,-90.6654,1.0,4.1,110.0,5.1,'11111222,11111222,11111222' 
LUMCON,ioos:station:LUMCON:105:1,2005-10-19T19:00:00Z,29.1874,-90.6654,1.0,4.1,100.0,5.1,'11111222,11111222,11111222' 
LUMCON,ioos:station:LUMCON:105:1,2005-10-19T21:00:00Z,29.1874,-90.6654,1.0,3.1,110.0,4.1,'11111222,11111222,11111222' 
LUMCON,ioos:station:LUMCON:105:1,2005-10-19T22:00:00Z,29.1874,-90.6654,1.0,3.1,110.0,4.1,'11111222,11111222,11111222' 
LUMCON,ioos:station:LUMCON:105:1,2005-10-19T23:00:00Z,29.1874,-90.6654,1.0,4.1,120.0,5.1,'11111222,11111222,11111222' 
LUMCON,ioos:station:LUMCON:105:1,2005-10-20T01:00:00Z,29.1874,-90.6654,1.0,4.6,120.0,5.1,'11111222,11111222,11111222' 